Hourly Weather Kithor

Today, 24 October, Saturday

Time Temperature Precipitation Wind Pressure Humidity
00:00 +24°C° 0 mm 1 mps 736 mmHg 24%
01:00 +23°C° 0 mm 1 mps 736 mmHg 25%
02:00 +22°C° 0 mm 1 mps 736 mmHg 26%
03:00 +22°C° 0 mm 1 mps 736 mmHg 26%
04:00 +22°C° 0 mm 1 mps 736 mmHg 26%
05:00 +22°C° 0 mm 1 mps 736 mmHg 26%
06:00 +24°C° 0 mm 1 mps 736 mmHg 25%
07:00 +25°C° 0 mm 1 mps 737 mmHg 25%
08:00 +27°C° 0 mm 1 mps 737 mmHg 24%
09:00 +29°C° 0 mm 1 mps 737 mmHg 22%
10:00 +31°C° 0 mm 2 mps 737 mmHg 19%
11:00 +34°C° 0 mm 2 mps 737 mmHg 17%
12:00 +35°C° 0 mm 2 mps 737 mmHg 15%
13:00 +35°C° 0 mm 2 mps 736 mmHg 14%
14:00 +36°C° 0 mm 3 mps 736 mmHg 12%
15:00 +34°C° 0 mm 2 mps 736 mmHg 15%
16:00 +31°C° 0 mm 2 mps 736 mmHg 17%
17:00 +30°C° 0 mm 1 mps 736 mmHg 19%
18:00 +28°C° 0 mm 1 mps 736 mmHg 20%
19:00 +27°C° 0 mm 2 mps 737 mmHg 21%
20:00 +26°C° 0 mm 2 mps 737 mmHg 22%
21:00 +25°C° 0 mm 1 mps 737 mmHg 23%
22:00 +24°C° 0 mm 1 mps 738 mmHg 25%
23:00 +24°C° 0 mm 1 mps 738 mmHg 26%

Tomorrow, 25 October, Sunday

Time Temperature Precipitation Wind Pressure Humidity
00:00 +23°C° 0 mm 1 mps 738 mmHg 27%
01:00 +21°C° 0 mm 0 mps 738 mmHg 28%
02:00 +20°C° 0 mm 0 mps 738 mmHg 29%
03:00 +20°C° 0 mm 0 mps 738 mmHg 29%
04:00 +20°C° 0 mm 0 mps 738 mmHg 29%
05:00 +19°C° 0 mm 0 mps 738 mmHg 29%
06:00 +23°C° 0 mm 1 mps 739 mmHg 29%
07:00 +24°C° 0 mm 1 mps 739 mmHg 28%
08:00 +26°C° 0 mm 1 mps 740 mmHg 27%
09:00 +28°C° 0 mm 1 mps 740 mmHg 24%
10:00 +30°C° 0 mm 1 mps 740 mmHg 21%
11:00 +33°C° 0 mm 1 mps 740 mmHg 18%
12:00 +33°C° 0 mm 1 mps 739 mmHg 16%
13:00 +34°C° 0 mm 1 mps 738 mmHg 15%
14:00 +36°C° 0 mm 2 mps 738 mmHg 13%
15:00 +33°C° 0 mm 1 mps 737 mmHg 15%
16:00 +31°C° 0 mm 1 mps 737 mmHg 17%
17:00 +29°C° 0 mm 1 mps 737 mmHg 19%
18:00 +28°C° 0 mm 1 mps 737 mmHg 20%
19:00 +27°C° 0 mm 1 mps 738 mmHg 21%
20:00 +26°C° 0 mm 1 mps 738 mmHg 22%
21:00 +25°C° 0 mm 1 mps 738 mmHg 23%
22:00 +25°C° 0 mm 1 mps 738 mmHg 24%
23:00 +24°C° 0 mm 1 mps 739 mmHg 25%

Day after tomorrow, 26 October, Monday

Time Temperature Precipitation Wind Pressure Humidity
00:00 +23°C° 0 mm 1 mps 738 mmHg 26%
01:00 +21°C° 0 mm 0 mps 738 mmHg 27%
02:00 +20°C° 0 mm 0 mps 738 mmHg 28%
03:00 +20°C° 0 mm 0 mps 738 mmHg 30%
04:00 +22°C° 0 mm 1 mps 738 mmHg 31%
05:00 +21°C° 0 mm 1 mps 739 mmHg 32%
06:00 +22°C° 0 mm 1 mps 739 mmHg 31%
07:00 +24°C° 0 mm 1 mps 740 mmHg 30%
08:00 +23°C° 0 mm 0 mps 740 mmHg 29%
09:00 +28°C° 0 mm 1 mps 740 mmHg 25%
10:00 +30°C° 0 mm 2 mps 740 mmHg 20%
11:00 +32°C° 0 mm 2 mps 740 mmHg 16%
12:00 +34°C° 0 mm 3 mps 739 mmHg 14%
13:00 +35°C° 0 mm 3 mps 738 mmHg 13%
14:00 +36°C° 0 mm 4 mps 738 mmHg 11%
15:00 +35°C° 0 mm 3 mps 738 mmHg 13%
16:00 +32°C° 0 mm 2 mps 738 mmHg 15%
17:00 +30°C° 0 mm 2 mps 737 mmHg 17%
18:00 +29°C° 0 mm 2 mps 738 mmHg 17%
19:00 +27°C° 0 mm 1 mps 738 mmHg 17%
20:00 +26°C° 0 mm 1 mps 738 mmHg 17%
21:00 +25°C° 0 mm 1 mps 738 mmHg 17%
22:00 +25°C° 0 mm 2 mps 738 mmHg 18%
23:00 +24°C° 0 mm 2 mps 738 mmHg 19%

, 27 October, Tuesday

Time Temperature Precipitation Wind Pressure Humidity
00:00 +23°C° 0 mm 2 mps 738 mmHg 19%
01:00 +23°C° 0 mm 2 mps 738 mmHg 19%
02:00 +21°C° 0 mm 2 mps 737 mmHg 19%
03:00 +21°C° 0 mm 2 mps 737 mmHg 20%
04:00 +20°C° 0 mm 2 mps 737 mmHg 20%
05:00 +20°C° 0 mm 2 mps 737 mmHg 21%
06:00 +21°C° 0 mm 2 mps 738 mmHg 21%
07:00 +23°C° 0 mm 2 mps 738 mmHg 21%
08:00 +25°C° 0 mm 2 mps 739 mmHg 22%
09:00 +27°C° 0 mm 2 mps 739 mmHg 19%
10:00 +30°C° 0 mm 2 mps 739 mmHg 16%
11:00 +33°C° 0 mm 3 mps 739 mmHg 14%
12:00 +34°C° 0 mm 3 mps 738 mmHg 13%
13:00 +35°C° 0 mm 4 mps 738 mmHg 12%
14:00 +36°C° 0 mm 4 mps 737 mmHg 11%
15:00 +34°C° 0 mm 3 mps 737 mmHg 13%
16:00 +31°C° 0 mm 3 mps 737 mmHg 15%
17:00 +29°C° 0 mm 2 mps 738 mmHg 17%
18:00 +28°C° 0 mm 2 mps 738 mmHg 17%
19:00 +27°C° 0 mm 2 mps 738 mmHg 17%
20:00 +26°C° 0 mm 2 mps 738 mmHg 17%
21:00 +25°C° 0 mm 2 mps 738 mmHg 17%
22:00 +24°C° 0 mm 2 mps 738 mmHg 18%
23:00 +24°C° 0 mm 2 mps 738 mmHg 19%

27 October, Tuesday

Time Temperature Precipitation Wind Pressure Humidity
00:00 +23°C° 0 mm 2 mps 738 mmHg 19%
01:00 +23°C° 0 mm 2 mps 738 mmHg 19%
02:00 +21°C° 0 mm 2 mps 737 mmHg 19%
03:00 +21°C° 0 mm 2 mps 737 mmHg 20%
04:00 +20°C° 0 mm 2 mps 737 mmHg 20%
05:00 +20°C° 0 mm 2 mps 737 mmHg 21%
06:00 +21°C° 0 mm 2 mps 738 mmHg 21%
07:00 +23°C° 0 mm 2 mps 738 mmHg 21%
08:00 +25°C° 0 mm 2 mps 739 mmHg 22%
09:00 +27°C° 0 mm 2 mps 739 mmHg 19%
10:00 +30°C° 0 mm 2 mps 739 mmHg 16%
11:00 +33°C° 0 mm 3 mps 739 mmHg 14%
12:00 +34°C° 0 mm 3 mps 738 mmHg 13%
13:00 +35°C° 0 mm 4 mps 738 mmHg 12%
14:00 +36°C° 0 mm 4 mps 737 mmHg 11%
15:00 +34°C° 0 mm 3 mps 737 mmHg 13%
16:00 +31°C° 0 mm 3 mps 737 mmHg 15%
17:00 +29°C° 0 mm 2 mps 738 mmHg 17%
18:00 +28°C° 0 mm 2 mps 738 mmHg 17%
19:00 +27°C° 0 mm 2 mps 738 mmHg 17%
20:00 +26°C° 0 mm 2 mps 738 mmHg 17%
21:00 +25°C° 0 mm 2 mps 738 mmHg 17%
22:00 +24°C° 0 mm 2 mps 738 mmHg 18%
23:00 +24°C° 0 mm 2 mps 738 mmHg 19%

28 October, Wednesday

Time Temperature Precipitation Wind Pressure Humidity
00:00 +23°C° 0 mm 2 mps 738 mmHg 19%
01:00 +23°C° 0 mm 2 mps 738 mmHg 20%
02:00 +21°C° 0 mm 2 mps 737 mmHg 20%
03:00 +22°C° 0 mm 1 mps 738 mmHg 20%
04:00 +21°C° 0 mm 1 mps 738 mmHg 21%
05:00 +18°C° 0 mm 0 mps 738 mmHg 21%
06:00 +20°C° 0 mm 0 mps 738 mmHg 21%
07:00 +21°C° 0 mm 0 mps 739 mmHg 21%
08:00 +23°C° 0 mm 0 mps 740 mmHg 21%
09:00 +25°C° 0 mm 0 mps 740 mmHg 19%
10:00 +28°C° 0 mm 0 mps 740 mmHg 16%
11:00 +30°C° 0 mm 0 mps 740 mmHg 14%
12:00 +33°C° 0 mm 1 mps 739 mmHg 13%
13:00 +35°C° 0 mm 2 mps 739 mmHg 11%
14:00 +35°C° 0 mm 2 mps 738 mmHg 10%
15:00 +32°C° 0 mm 2 mps 738 mmHg 12%
16:00 +31°C° 0 mm 2 mps 738 mmHg 14%
17:00 +29°C° 0 mm 1 mps 738 mmHg 17%
18:00 +27°C° 0 mm 1 mps 738 mmHg 18%
19:00 +26°C° 0 mm 1 mps 739 mmHg 19%
20:00 +25°C° 0 mm 1 mps 739 mmHg 20%
21:00 +24°C° 0 mm 1 mps 739 mmHg 22%
22:00 +23°C° 0 mm 1 mps 739 mmHg 24%
23:00 +23°C° 0 mm 1 mps 739 mmHg 26%

29 October, Thursday

Time Temperature Precipitation Wind Pressure Humidity
00:00 +20°C° 0 mm 0 mps 739 mmHg 27%
01:00 +20°C° 0 mm 0 mps 739 mmHg 28%
02:00 +19°C° 0 mm 0 mps 738 mmHg 28%
03:00 +19°C° 0 mm 0 mps 739 mmHg 29%
04:00 +19°C° 0 mm 0 mps 739 mmHg 30%
05:00 +20°C° 0 mm 1 mps 739 mmHg 31%
06:00 +22°C° 0 mm 1 mps 740 mmHg 31%
07:00 +23°C° 0 mm 1 mps 740 mmHg 32%
08:00 +24°C° 0 mm 2 mps 741 mmHg 32%
09:00 +26°C° 0 mm 1 mps 741 mmHg 28%
10:00 +29°C° 0 mm 1 mps 741 mmHg 23%
11:00 +31°C° 0 mm 1 mps 741 mmHg 19%
12:00 +32°C° 0 mm 1 mps 740 mmHg 18%
13:00 +33°C° 0 mm 1 mps 739 mmHg 17%
14:00 +34°C° 0 mm 1 mps 739 mmHg 15%
15:00 +32°C° 0 mm 1 mps 739 mmHg 18%
16:00 +30°C° 0 mm 1 mps 739 mmHg 20%
17:00 +29°C° 0 mm 1 mps 738 mmHg 22%
18:00 +28°C° 0 mm 1 mps 739 mmHg 23%
19:00 +27°C° 0 mm 1 mps 739 mmHg 24%
20:00 +26°C° 0 mm 2 mps 739 mmHg 25%
21:00 +25°C° 0 mm 1 mps 739 mmHg 27%
22:00 +24°C° 0 mm 1 mps 739 mmHg 29%
23:00 +23°C° 0 mm 1 mps 739 mmHg 30%
Show more